{"data":{"norad_id":64682,"intl_designator":"2025-139U","name":"STARLINK-34551","alt_names":[],"object_type":"PAYLOAD","status":"ACTIVE","operator":null,"country":"US","launch_date":"2025-06-28","launch_site_code":"AFETR","launch_vehicle":null,"mission":null,"orbit_class":"UNKNOWN","rcs_meters":null,"size_class":null,"mass_kg":null,"dimensions":null,"purposes":["comms"],"wikipedia_slug":null,"has_3d_model":false,"image_url":null,"decayed_at":null,"tle_current":{"epoch":"2026-05-25T02:56:56.126112Z","epoch_age_seconds":64134,"freshness":"FRESH","line1":"1 64682U 25139U   26145.12287183  .00043630  00000+0  14756-2 0  9996","line2":"2 64682  53.1583 121.5557 0000912  54.2399 305.8687 15.30221628 52131","mean_motion":15.30221628,"eccentricity":9.12e-5,"inclination_deg":53.1583,"raan_deg":121.5557,"arg_perigee_deg":54.2399,"mean_anomaly_deg":305.8687,"bstar":0.0014756,"rev_number":5213,"period_min":94.104015630865,"perigee_km":474.52547305106,"apogee_km":475.77551268976,"semimajor_km":6853.2874928704,"source":"CELESTRAK","updated_at":"2026-05-25T13:38:20.506922Z"}}}